Regional Weather Roundup
Issued by NWS

Home | Current Version | Previous Version | Text Only | Print | Product List | Glossary On
Versions: 1 2 3 4 5 6 7 8 9 10 11 12 13 14 15 16 17 18 19 20 21 22 23 24 25 26 27 28 29 30 31 32 33 34 35 36 37 38 39 40 41 42 43 44 45 46 47 48 49 50
000
ASUS45 KBOI 260210
RWRID

IDAHO REGIONAL WEATHER ROUNDUP
NATIONAL WEATHER SERVICE BOISE ID
800 PM MDT MON JUL 25 2016

NOTE: "FAIR" INDICATES FEW OR NO CLOUDS BELOW 12000 FEET
WITH NO SIGNIFICANT WEATHER AND/OR OBSTRUCTIONS TO VISIBILITY

IDZ012-014-260300-
SOUTHWEST IDAHO


CITY           SKY/WX    TMP DP  RH WIND       PRES   REMARKS
BOISE          SUNNY     98  28   8 NW9       29.90F HX  92
CALDWELL       NOT AVBL
MOUNTAIN HOME  SUNNY     99  26   7 N13       29.90S HX  92
$$

IDZ016-017-260300-
SOUTHCENTRAL IDAHO


CITY           SKY/WX    TMP DP  RH WIND       PRES   REMARKS
BURLEY         CLEAR     86  42  21 S6        30.00S
JEROME         SUNNY     91  36  14 W3        30.00F
TWIN FALLS     SUNNY     91  30  11 NW5       30.01S
$$

IDZ019>023-260300-
SOUTHEAST IDAHO


CITY           SKY/WX    TMP DP  RH WIND       PRES   REMARKS
IDAHO FALLS    CLEAR     89  32  13 S9        30.04S
POCATELLO      CLEAR     89  39  17 W10       30.03S
REXBURG        CLEAR     85  41  21 S8        30.04F
$$

IDZ006-010-011-018-031-032-260300-
CENTRAL IDAHO MOUNTAINS


CITY           SKY/WX    TMP DP  RH WIND       PRES   REMARKS
MCCALL         SUNNY     86  32  14 CALM      30.11S
HAILEY         MOSUNNY   84  34  16 SW8       30.11R
STANLEY        NOT AVBL
SALMON         MOSUNNY   90  46  22 W5        29.97S
CHALLIS        MOSUNNY   87  30  13 NW9       30.07S
$$

IDZ002-004-006-007-026-260300-
NORTHERN IDAHO


CITY           SKY/WX    TMP DP  RH WIND       PRES   REMARKS
LEWISTON       SUNNY     96  44  16 NE8       29.88F HX  92
LOWELL           N/A     78  55  44 N3        29.91S
COEUR D`ALENE  SUNNY     88  54  31 SW5       29.92F
MULLAN PASS    SUNNY     70  40  33 VRB3      30.22S
$$



USA.gov is the U.S. government's official web portal to all federal, state and local government web resources and services.